Time,TemperatureF,DewpointF,PressureIn,WindDirection,WindDirectionDegrees,WindSpeedMPH,WindSpeedGustMPH,Humidity,HourlyPrecipIn,Conditions,Clouds,dailyrainin,SoftwareType,DateUTC
2013-03-21 00:10:00,40.2,22.0,29.56,WSW,246,7.0,7.0,48,0.00,,,0.00,weatherlink.com 1.10,2013-03-21 06:10:00,
2013-03-21 00:25:00,39.9,21.0,29.57,WSW,258,4.0,14.0,48,0.00,,,0.00,weatherlink.com 1.10,2013-03-21 06:25:00,
2013-03-21 00:40:00,39.7,22.0,29.57,SSE,166,2.0,11.0,50,0.00,,,0.00,weatherlink.com 1.10,2013-03-21 06:40:00,
2013-03-21 00:55:00,39.6,20.0,29.57,South,171,2.0,5.0,46,0.00,,,0.00,weatherlink.com 1.10,2013-03-21 06:55:00,
2013-03-21 01:10:00,39.6,22.0,29.57,West,267,9.0,15.0,49,0.00,,,0.00,weatherlink.com 1.10,2013-03-21 07:10:00,
2013-03-21 01:25:00,39.3,22.0,29.57,North,5,2.0,4.0,50,0.00,,,0.00,weatherlink.com 1.10,2013-03-21 07:25:00,
2013-03-21 01:40:00,39.3,20.0,29.58,WSW,255,0.0,8.0,46,0.00,,,0.00,weatherlink.com 1.10,2013-03-21 07:40:00,
2013-03-21 01:55:00,38.9,21.0,29.59,West,263,5.0,13.0,48,0.00,,,0.00,weatherlink.com 1.10,2013-03-21 07:55:00,
2013-03-21 02:10:00,38.8,20.0,29.58,WNW,296,5.0,12.0,48,0.00,,,0.00,weatherlink.com 1.10,2013-03-21 08:10:00,
2013-03-21 02:25:00,38.7,19.0,29.59,South,173,0.0,9.0,46,0.00,,,0.00,weatherlink.com 1.10,2013-03-21 08:25:00,
2013-03-21 02:40:00,38.7,20.0,29.60,WSW,238,0.0,11.0,48,0.00,,,0.00,weatherlink.com 1.10,2013-03-21 08:40:00,
2013-03-21 02:55:00,38.9,19.0,29.62,WSW,244,3.0,11.0,45,0.00,,,0.00,weatherlink.com 1.10,2013-03-21 08:55:00,
2013-03-21 03:10:00,38.6,19.0,29.61,WSW,254,1.0,11.0,46,0.00,,,0.00,weatherlink.com 1.10,2013-03-21 09:10:00,
2013-03-21 03:25:00,38.2,18.0,29.61,West,266,14.0,22.0,45,0.00,,,0.00,weatherlink.com 1.10,2013-03-21 09:25:00,
2013-03-21 03:40:00,37.9,19.0,29.61,SE,142,1.0,15.0,47,0.00,,,0.00,weatherlink.com 1.10,2013-03-21 09:40:00,
2013-03-21 03:55:00,37.5,18.0,29.61,SW,216,1.0,13.0,46,0.00,,,0.00,weatherlink.com 1.10,2013-03-21 09:55:00,
2013-03-21 04:10:00,37.4,18.0,29.61,SSE,167,0.0,10.0,46,0.00,,,0.00,weatherlink.com 1.10,2013-03-21 10:10:00,
2013-03-21 04:25:00,36.9,19.0,29.61,WSW,246,1.0,14.0,48,0.00,,,0.00,weatherlink.com 1.10,2013-03-21 10:25:00,
2013-03-21 04:40:00,37.0,18.0,29.61,West,264,9.0,19.0,47,0.00,,,0.00,weatherlink.com 1.10,2013-03-21 10:40:00,
2013-03-21 04:55:00,36.6,18.0,29.62,WNW,284,7.0,10.0,48,0.00,,,0.00,weatherlink.com 1.10,2013-03-21 10:55:00,
2013-03-21 05:10:00,36.6,18.0,29.63,WSW,254,3.0,12.0,48,0.00,,,0.00,weatherlink.com 1.10,2013-03-21 11:10:00,
2013-03-21 05:25:00,36.5,18.0,29.63,SW,230,0.0,14.0,48,0.00,,,0.00,weatherlink.com 1.10,2013-03-21 11:25:00,
2013-03-21 05:40:00,36.3,19.0,29.63,WNW,291,9.0,16.0,49,0.00,,,0.00,weatherlink.com 1.10,2013-03-21 11:40:00,
2013-03-21 05:55:00,35.7,18.0,29.64,WSW,240,0.0,9.0,49,0.00,,,0.00,weatherlink.com 1.10,2013-03-21 11:55:00,
2013-03-21 06:10:00,35.8,18.0,29.65,WSW,250,21.0,21.0,48,0.00,,,0.00,weatherlink.com 1.10,2013-03-21 12:10:00,
2013-03-21 06:26:00,35.3,18.0,29.66,WSW,256,7.0,18.0,49,0.00,,,0.00,weatherlink.com 1.10,2013-03-21 12:26:00,
2013-03-21 06:41:00,34.5,16.0,29.66,SSW,211,2.0,9.0,48,0.00,,,0.00,weatherlink.com 1.10,2013-03-21 12:41:00,
2013-03-21 06:56:00,33.5,17.0,29.67,WSW,257,1.0,7.0,51,0.00,,,0.00,weatherlink.com 1.10,2013-03-21 12:56:00,
2013-03-21 07:11:00,34.0,17.0,29.67,NW,321,5.0,13.0,50,0.00,,,0.00,weatherlink.com 1.10,2013-03-21 13:11:00,
2013-03-21 07:41:00,33.6,15.0,29.68,South,180,1.0,8.0,47,0.00,,,0.00,weatherlink.com 1.10,2013-03-21 13:41:00,
2013-03-21 08:11:00,33.5,15.0,29.70,ESE,120,0.0,6.0,47,0.00,,,0.00,weatherlink.com 1.10,2013-03-21 14:11:00,
2013-03-21 08:41:00,35.3,14.0,29.68,SE,139,5.0,26.0,41,0.00,,,0.00,weatherlink.com 1.10,2013-03-21 14:41:00,
2013-03-21 08:56:00,35.5,13.0,29.69,South,191,0.0,21.0,40,0.00,,,0.00,weatherlink.com 1.10,2013-03-21 14:56:00,
2013-03-21 09:11:00,35.7,13.0,29.69,WSW,242,19.0,21.0,40,0.00,,,0.00,weatherlink.com 1.10,2013-03-21 15:11:00,
2013-03-21 09:26:00,35.9,12.0,29.69,WNW,286,11.0,23.0,37,0.00,,,0.00,weatherlink.com 1.10,2013-03-21 15:26:00,
2013-03-21 09:41:00,36.6,10.0,29.70,WSW,239,2.0,15.0,33,0.00,,,0.00,weatherlink.com 1.10,2013-03-21 15:41:00,
2013-03-21 09:56:00,36.9,9.0,29.71,WSW,256,6.0,24.0,31,0.00,,,0.00,weatherlink.com 1.10,2013-03-21 15:56:00,
2013-03-21 10:11:00,37.9,7.0,29.72,WSW,258,9.0,18.0,28,0.00,,,0.00,weatherlink.com 1.10,2013-03-21 16:11:00,
2013-03-21 10:26:00,38.4,9.0,29.72,WSW,244,13.0,23.0,29,0.00,,,0.00,weatherlink.com 1.10,2013-03-21 16:26:00,
2013-03-21 10:41:00,36.7,9.0,29.72,West,273,17.0,22.0,31,0.00,,,0.00,weatherlink.com 1.10,2013-03-21 16:41:00,
2013-03-21 10:56:00,36.1,9.0,29.72,West,269,13.0,19.0,32,0.00,,,0.00,weatherlink.com 1.10,2013-03-21 16:56:00,
2013-03-21 11:11:00,35.7,9.0,29.73,WSW,257,12.0,27.0,33,0.00,,,0.00,weatherlink.com 1.10,2013-03-21 17:11:00,
2013-03-21 11:26:00,35.8,10.0,29.74,West,271,14.0,17.0,34,0.00,,,0.00,weatherlink.com 1.10,2013-03-21 17:26:00,
2013-03-21 12:11:00,37.3,10.0,29.75,WSW,253,7.0,19.0,33,0.00,,,0.00,weatherlink.com 1.10,2013-03-21 18:11:00,
2013-03-21 12:26:00,36.8,11.0,29.75,West,279,17.0,17.0,34,0.00,,,0.00,weatherlink.com 1.10,2013-03-21 18:26:00,
2013-03-21 12:41:00,37.4,11.0,29.75,SW,236,7.0,19.0,33,0.00,,,0.00,weatherlink.com 1.10,2013-03-21 18:41:00,
2013-03-21 12:56:00,39.5,11.0,29.76,WSW,254,9.0,18.0,31,0.00,,,0.00,weatherlink.com 1.10,2013-03-21 18:56:00,
2013-03-21 13:11:00,39.0,10.0,29.76,SW,231,14.0,31.0,30,0.00,,,0.00,weatherlink.com 1.10,2013-03-21 19:11:00,
2013-03-21 13:26:00,40.2,10.0,29.76,West,267,6.0,27.0,29,0.00,,,0.00,weatherlink.com 1.10,2013-03-21 19:26:00,
2013-03-21 13:41:00,40.5,10.0,29.76,West,271,15.0,24.0,29,0.00,,,0.00,weatherlink.com 1.10,2013-03-21 19:41:00,
2013-03-21 13:56:00,40.3,10.0,29.77,West,272,15.0,28.0,29,0.00,,,0.00,weatherlink.com 1.10,2013-03-21 19:56:00,
2013-03-21 14:11:00,38.7,8.0,29.76,West,279,13.0,29.0,28,0.00,,,0.00,weatherlink.com 1.10,2013-03-21 20:11:00,
2013-03-21 14:26:00,39.8,9.0,29.77,WNW,293,1.0,18.0,28,0.00,,,0.00,weatherlink.com 1.10,2013-03-21 20:26:00,
2013-03-21 14:41:00,40.6,10.0,29.77,WSW,247,5.0,21.0,28,0.00,,,0.00,weatherlink.com 1.10,2013-03-21 20:41:00,
2013-03-21 14:56:00,41.9,10.0,29.76,WNW,282,12.0,17.0,27,0.00,,,0.00,weatherlink.com 1.10,2013-03-21 20:56:00,
2013-03-21 15:11:00,39.5,11.0,29.77,West,261,15.0,25.0,31,0.00,,,0.00,weatherlink.com 1.10,2013-03-21 21:11:00,
2013-03-21 15:26:00,39.8,9.0,29.77,West,262,16.0,29.0,28,0.00,,,0.00,weatherlink.com 1.10,2013-03-21 21:26:00,
2013-03-21 15:56:00,39.4,9.0,29.78,WNW,294,7.0,21.0,29,0.00,,,0.00,weatherlink.com 1.10,2013-03-21 21:56:00,
2013-03-21 16:11:00,39.7,10.0,29.80,West,271,5.0,21.0,29,0.00,,,0.00,weatherlink.com 1.10,2013-03-21 22:11:00,
2013-03-21 16:27:00,39.7,12.0,29.80,West,265,6.0,17.0,32,0.00,,,0.00,weatherlink.com 1.10,2013-03-21 22:27:00,
2013-03-21 16:42:00,39.8,12.0,29.81,WSW,246,8.0,17.0,32,0.00,,,0.00,weatherlink.com 1.10,2013-03-21 22:42:00,
2013-03-21 16:57:00,39.2,12.0,29.82,WSW,242,7.0,25.0,33,0.00,,,0.00,weatherlink.com 1.10,2013-03-21 22:57:00,
2013-03-21 17:12:00,38.8,14.0,29.83,WSW,252,15.0,20.0,36,0.00,,,0.00,weatherlink.com 1.10,2013-03-21 23:12:00,
2013-03-21 17:27:00,38.8,14.0,29.83,WSW,242,7.0,15.0,36,0.00,,,0.00,weatherlink.com 1.10,2013-03-21 23:27:00,
2013-03-21 17:42:00,37.9,14.0,29.84,WSW,242,1.0,17.0,37,0.00,,,0.00,weatherlink.com 1.10,2013-03-21 23:42:00,
2013-03-21 17:57:00,38.4,13.0,29.85,WSW,252,8.0,13.0,35,0.00,,,0.00,weatherlink.com 1.10,2013-03-21 23:57:00,
2013-03-21 18:12:00,37.8,11.0,29.85,West,273,11.0,23.0,33,0.00,,,0.00,weatherlink.com 1.10,2013-03-22 00:12:00,
2013-03-21 18:27:00,37.3,10.0,29.86,West,261,3.0,17.0,33,0.00,,,0.00,weatherlink.com 1.10,2013-03-22 00:27:00,
2013-03-21 18:42:00,36.6,11.0,29.87,WSW,249,10.0,17.0,34,0.00,,,0.00,weatherlink.com 1.10,2013-03-22 00:42:00,
2013-03-21 18:57:00,35.1,11.0,29.87,West,271,7.0,16.0,37,0.00,,,0.00,weatherlink.com 1.10,2013-03-22 00:57:00,
2013-03-21 19:12:00,35.2,13.0,29.88,SW,232,1.0,9.0,40,0.00,,,0.00,weatherlink.com 1.10,2013-03-22 01:12:00,
2013-03-21 19:27:00,33.5,13.0,29.88,WSW,245,0.0,11.0,43,0.00,,,0.00,weatherlink.com 1.10,2013-03-22 01:27:00,
2013-03-21 19:42:00,32.6,13.0,29.89,SW,228,1.0,7.0,44,0.00,,,0.00,weatherlink.com 1.10,2013-03-22 01:42:00,
2013-03-21 19:57:00,32.3,13.0,29.89,WSW,254,0.0,6.0,45,0.00,,,0.00,weatherlink.com 1.10,2013-03-22 01:57:00,
2013-03-21 20:12:00,31.8,13.0,29.89,SW,232,0.0,8.0,46,0.00,,,0.00,weatherlink.com 1.10,2013-03-22 02:12:00,
2013-03-21 20:27:00,32.0,13.0,29.90,WSW,239,2.0,8.0,45,0.00,,,0.00,weatherlink.com 1.10,2013-03-22 02:27:00,
2013-03-21 20:42:00,31.9,14.0,29.91,WSW,251,4.0,11.0,47,0.00,,,0.00,weatherlink.com 1.10,2013-03-22 02:42:00,
2013-03-21 20:57:00,31.7,14.0,29.91,WSW,243,4.0,8.0,49,0.00,,,0.00,weatherlink.com 1.10,2013-03-22 02:57:00,
2013-03-21 21:12:00,31.1,16.0,29.91,WSW,238,0.0,7.0,53,0.00,,,0.00,weatherlink.com 1.10,2013-03-22 03:12:00,
2013-03-21 21:27:00,31.2,15.0,29.92,WSW,238,3.0,8.0,51,0.00,,,0.00,weatherlink.com 1.10,2013-03-22 03:27:00,
2013-03-21 21:57:00,30.5,14.0,29.92,WSW,241,2.0,6.0,51,0.00,,,0.00,weatherlink.com 1.10,2013-03-22 03:57:00,
2013-03-21 22:12:00,29.9,14.0,29.92,South,174,0.0,6.0,52,0.00,,,0.00,weatherlink.com 1.10,2013-03-22 04:12:00,
2013-03-21 22:27:00,30.2,14.0,29.92,WSW,248,1.0,10.0,52,0.00,,,0.00,weatherlink.com 1.10,2013-03-22 04:27:00,
2013-03-21 22:42:00,30.4,15.0,29.92,SW,230,1.0,11.0,52,0.00,,,0.00,weatherlink.com 1.10,2013-03-22 04:42:00,
2013-03-21 22:57:00,29.8,14.0,29.93,South,171,1.0,4.0,53,0.00,,,0.00,weatherlink.com 1.10,2013-03-22 04:57:00,
2013-03-21 23:12:00,29.2,14.0,29.93,South,187,0.0,1.0,54,0.00,,,0.00,weatherlink.com 1.10,2013-03-22 05:12:00,
2013-03-21 23:27:00,29.3,15.0,29.94,South,181,0.0,1.0,55,0.00,,,0.00,weatherlink.com 1.10,2013-03-22 05:27:00,
2013-03-21 23:43:00,29.9,15.0,29.94,SSW,206,0.0,4.0,53,0.00,,,0.00,weatherlink.com 1.10,2013-03-22 05:43:00,
2013-03-21 23:57:00,30.1,15.0,29.94,South,180,0.0,4.0,53,0.00,,,0.00,weatherlink.com 1.10,2013-03-22 05:57:00,